This demonstration page uses our WeatherBlox Daily Observations layout. Learn more.

Left ArrowRight Arrow

38.20091, -84.87328

Hourly Observations for April 18, 2016

Temp ( °F °C ) Dew Point ( °F °C ) Humidity (%) Winds ( mph kmh ) Pressure ( in mb ) Visibility ( mi km ) Precip ( " mm )
12:53 am 00:53 Clear 52 11.1 42 5.6 69 69 Calm 30.30 1026 10 16 0.00 0.00
1:53 am 01:53 Clear 50 10 41 5 71 71 Calm 30.30 1026 10 16 0.00 0.00
2:53 am 02:53 Clear 51 10.6 42 5.6 71 71 Calm 30.29 1026 10 16 0.00 0.00
3:53 am 03:53 Clear 48 8.9 41 5 77 77 Calm 30.29 1026 10 16 0.00 0.00
4:53 am 04:53 Clear 47 8.3 41 5 80 80 Calm 30.29 1026 10 16 0.00 0.00
5:53 am 05:53 Clear 47 8.3 40 4.4 77 77 Calm 30.30 1026 10 16 0.00 0.00
6:53 am 06:53 Clear 46 7.8 40 4.4 79 79 Calm 30.29 1026 10 16 0.00 0.00
7:53 am 07:53 Sunny 50 10 42 5.6 74 74 Calm 30.32 1027 10 16 0.00 0.00
8:53 am 08:53 Sunny 58 14.4 47 8.3 67 67 Calm 30.33 1027 10 16 0.00 0.00
9:53 am 09:53 Sunny 67 19.4 46 7.8 47 47 Calm 30.33 1027 10 16 0.00 0.00
10:53 am 10:53 Sunny 74 23.3 46 7.8 37 37 Calm 30.32 1027 10 16 0.00 0.00
11:53 am 11:53 Sunny 78 25.6 42 5.6 28 28 S 6 9 30.33 1027 10 16 0.00 0.00
12:53 pm 12:53 Sunny 81 27.2 43 6.1 26 26 S 6 9 30.30 1026 10 16 0.00 0.00
1:53 pm 13:53 Sunny 82 27.8 37 2.8 20 20 SSW 6 9 30.27 1025 10 16 0.00 0.00
2:53 pm 14:53 Sunny 83 28.3 36 2.2 19 19 Calm 30.25 1025 10 16 0.00 0.00
3:53 pm 15:53 Sunny 83 28.3 39 3.9 21 21 VRB 6 9 30.23 1024 10 16 0.00 0.00
4:53 pm 16:53 Sunny 83 28.3 38 3.3 20 20 ESE 6 9 30.21 1023 10 16 0.00 0.00
5:53 pm 17:53 Sunny 82 27.8 40 4.4 22 22 VRB 6 9 30.20 1023 10 16 0.00 0.00
6:53 pm 18:53 Sunny 83 28.3 37 2.8 19 19 NNW 5 7 30.19 1023 10 16 0.00 0.00
7:53 pm 19:53 Sunny 78 25.6 41 5 27 27 NW 3 6 30.19 1023 10 16 0.00 0.00
8:53 pm 20:53 Clear 67 19.4 48 8.9 51 51 Calm 30.19 1022 10 16 0.00 0.00
9:53 pm 21:53 Clear 64 17.8 45 7.2 50 50 Calm 30.20 1023 10 16 0.00 0.00
10:53 pm 22:53 Clear 61 16.1 45 7.2 56 56 Calm 30.19 1023 10 16 0.00 0.00
11:53 pm 23:53 Clear 59 15 45 7.2 60 60 Calm 30.18 1022 10 16 0.00 0.00

Powered by AerisWeather